Location: Huntsville
(41.2590°N, 111.7678°W)
Time: 05:44:21
(UTC+00:00)

N. Korean satellite - Pass Details

Date: 05 December 2021
Orbit: 447 x 491 km, 97.3° (Epoch: 25 January)

Event Time Altitude Azimuth Distance (km) Brightness Sun altitude
Rises 00:48:02 0° 204° (SSW) 2,531 11.0 -9.3°
Reaches altitude 10° 00:50:42 10° 226° (SW) 1,648 10.5 -9.8°
Maximum altitude 00:53:00 16° 266° (W) 1,297 9.9 -10.2°
Drops below altitude 10° 00:55:18 10° 307° (NW) 1,639 9.7 -10.6°
Sets 00:57:57 0° 330° (NNW) 2,511 10.3 -11.0°
